[[{"header":{"parameterUnit":"m.s-1","parameterCategory":1,"la1":30.2992,"la2":30.254,"lo1":-89.0895,"lo2":-89.0443,"dy":0.0025,"dx":0.0025,"nx":19,"ny":19,"refTime":"2026-05-06T21:00:00:Z","depth":0,"parameterNumber":2,"parameterNumberName":"U-component_of_WINDS"},"data":[0,0,0,1.7708,1.7707,1.7635,1.7634,1.7565,1.7564,0,0,0,0,0,0,0,0,0,0,0,1.7745,1.7745,1.7708,1.7707,1.7635,1.7634,1.7565,1.7564,0,0,0,0,0,0,0,0,0,0,0,1.7745,1.7745,1.7745,1.7707,1.7635,1.7634,1.7565,1.7611,0,0,0,0,0,0,0,0,0,0,1.7677,1.7726,1.7745,1.7745,1.7707,1.7635,1.7634,1.7613,1.7608,1.7608,0,1.7612,0,1.7587,1.7561,1.7561,0,0,0,1.7696,1.773,1.7697,1.7745,1.7706,1.7635,1.7664,1.761,1.7605,1.7602,1.7611,1.7608,1.7586,1.7561,1.7561,1.7598,1.7599,0,0,1.77,1.7739,1.7701,1.7694,1.7708,1.7667,1.7662,1.7606,1.7619,1.761,1.7605,1.7585,1.7561,1.756,1.7597,1.7598,0,0,0,1.7719,1.7743,1.7711,1.7698,1.7683,1.7665,1.766,1.7621,1.7607,1.7605,1.7584,1.756,1.756,1.7597,1.7598,1.7672,0,0,0,1.7721,1.7754,1.7713,1.7737,1.7685,1.7651,1.7676,1.7611,1.7604,1.7585,1.756,1.7559,1.7596,1.7597,1.7668,1.77,0,0,0,1.7744,1.7756,1.7751,1.7739,1.7709,1.7651,1.7634,1.7609,1.7592,1.7561,1.7559,1.7595,1.7597,1.7665,1.7694,1.7722,0,0,0,1.778,1.7817,1.7753,1.7786,1.771,1.7698,1.7634,1.7623,1.7605,1.756,1.7596,1.7598,1.7664,1.7691,1.7719,1.7752,1.777,0,0,1.7849,1.7827,1.7843,1.7783,1.7793,1.7706,1.7726,1.7671,1.7632,1.7611,1.7612,1.7669,1.7694,1.7721,1.7856,1.7871,0,0,0,1.7878,1.789,1.7884,1.787,1.783,1.7798,1.7737,1.7717,1.7698,1.763,1.7685,1.7699,1.7713,1.7727,1.774,1.7749,1.7606,1.7606,1.7606,1.8031,1.7979,1.8002,1.7942,1.7929,1.7866,1.7851,1.7813,1.7763,1.7777,1.7771,1.7859,1.7878,1.7887,1.7898,1.7785,1.7785,1.7785,1.7785,1.8126,1.8135,1.807,1.8069,1.8014,1.8013,1.7954,1.7919,1.7909,1.786,1.787,1.782,1.7904,1.7911,1.779,1.7789,1.7789,1.7788,1.7788,1.822,1.8215,1.8191,1.8166,1.8152,1.8089,1.8084,1.8033,1.7985,1.7995,1.7983,1.7982,1.7974,1.7993,1.7994,1.7994,1.7994,1.7994,1.7995,1.8327,1.8298,1.83,1.8262,1.8246,1.8219,1.8157,1.814,1.8108,1.8072,1.8072,1.8021,1.7922,1.7899,1.7999,1.7998,1.7998,1.7997,1.7997,1.8443,1.8409,1.8412,1.8397,1.8348,1.8338,1.8274,1.8244,1.8223,1.8222,1.8169,1.8104,1.8078,1.8068,1.8048,1.818,1.818,1.818,1.818,1.8522,1.8504,1.8496,1.8476,1.8449,1.8393,1.8397,1.8349,1.8294,1.8278,1.8251,1.822,1.8212,1.819,1.8177,1.8158,1.8316,1.8316,1.8316,1.859,1.8568,1.8582,1.8529,1.8487,1.8453,1.8456,1.8434,1.8364,1.8321,1.8264,1.8258,1.8208,1.8194,1.815,1.8131,1.8094,0,0]},{"header":{"parameterUnit":"m.s-1","parameterCategory":1,"la1":30.2992,"la2":30.254,"lo1":-89.0895,"lo2":-89.0443,"dy":0.0025,"dx":0.0025,"nx":19,"ny":19,"refTime":"2026-05-06T21:00:00:Z","depth":0,"parameterNumber":3,"parameterNumberName":"V-component_of_WINDS"},"data":[0,0,0,4.895,4.8954,4.9141,4.9142,4.9379,4.9381,0,0,0,0,0,0,0,0,0,0,0,4.8891,4.8893,4.895,4.8955,4.9141,4.9142,4.9378,4.9381,0,0,0,0,0,0,0,0,0,0,0,4.8891,4.8892,4.8894,4.8955,4.9141,4.9142,4.9378,4.9238,0,0,0,0,0,0,0,0,0,0,4.9058,4.8999,4.8892,4.8894,4.8956,4.9141,4.9142,4.9232,4.9247,4.9293,0,4.933,0,4.9359,4.9396,4.9397,0,0,0,4.8958,4.8986,4.9039,4.8894,4.8958,4.9141,4.9058,4.924,4.9258,4.9313,4.9333,4.9342,4.9363,4.9398,4.9399,4.9645,4.9646,0,0,4.8948,4.8924,4.9027,4.905,4.9019,4.9052,4.9064,4.9251,4.9272,4.9334,4.9348,4.9367,4.9399,4.9401,4.9644,4.9645,0,0,0,4.8916,4.8916,4.8965,4.9041,4.9074,4.9057,4.9071,4.9264,4.9282,4.935,4.937,4.9401,4.9404,4.9643,4.9645,4.967,0,0,0,4.891,4.8898,4.896,4.8948,4.9071,4.9171,4.908,4.9269,4.9291,4.9368,4.9401,4.9406,4.9642,4.9644,4.9667,4.9687,0,0,0,4.8881,4.8894,4.892,4.8946,4.9025,4.9169,4.9197,4.9274,4.9303,4.9397,4.9407,4.9641,4.9644,4.9665,4.9683,4.9747,0,0,0,4.8843,4.894,4.892,4.9036,4.9023,4.9182,4.9196,4.9316,4.94,4.9402,4.9642,4.9645,4.9664,4.968,4.9743,4.9797,4.9816,0,0,4.8952,4.8952,4.9023,4.901,4.9165,4.9155,4.9316,4.9417,4.9449,4.9579,4.9585,4.9668,4.9683,4.9746,4.9929,4.9944,0,0,0,4.9049,4.91,4.9146,4.9224,4.9302,4.9372,4.9451,4.9489,4.9599,4.951,4.9708,4.9718,4.9756,4.9782,4.9795,4.9831,4.9655,4.9655,4.9655,4.9171,4.9205,4.9324,4.9382,4.9457,4.9537,4.9603,4.9668,4.9681,4.9728,4.9767,4.9873,4.9904,4.9913,4.995,4.9796,4.9796,4.9796,4.9797,4.9335,4.9413,4.9428,4.9549,4.9586,4.9689,4.977,4.9776,4.9879,4.9846,4.9882,4.9844,4.9929,4.9963,4.9799,4.9798,4.9798,4.9798,4.9798,4.942,4.9464,4.9506,4.9624,4.9711,4.9766,4.9864,4.9894,4.9923,4.9958,5.0004,5.0004,5.0009,4.9977,4.9978,4.9978,4.9979,4.9979,4.9979,4.9492,4.9539,4.9617,4.9709,4.9763,4.984,4.9921,4.9977,5.0047,5.0061,5.0062,5.0072,4.9929,4.9894,4.9985,4.9984,4.9983,4.9983,4.9982,4.965,4.9619,4.9739,4.9794,4.9905,4.999,5.0027,5.0138,5.0188,5.0236,5.0239,5.0127,5.0131,5.0121,5.0092,5.0229,5.0229,5.0229,5.0229,4.9723,4.9727,4.9857,4.9943,5.0031,5.0076,5.0214,5.0279,5.0342,5.0377,5.0361,5.0324,5.0313,5.0323,5.0309,5.0283,5.0465,5.0465,5.0466,4.9823,4.9837,4.9947,5.0006,5.0095,5.0172,5.0303,5.0404,5.0469,5.0476,5.0405,5.0395,5.0336,5.0315,5.0322,5.0299,5.0251,0,0]}]]